Location: �mondeville
(49.4591°N, 1.3431°W)
Time: 18:05:41
(UTC+00:00)

Cosmos 614 Rocket - Pass Details

Date: 22 October 2019
Orbit: 734 x 763 km, 74.1° (Epoch: 17 November)

Event Time Altitude Azimuth Distance (km) Brightness Sun altitude
Exits shadow 03:53:33 58° 159° (SSE) 890 4.2 -27.0°
Maximum altitude 03:54:23 68° 109° (ESE) 822 4.2 -26.9°
Drops below altitude 10° 03:59:33 10° 28° (NNE) 2,296 7.0 -26.1°
Sets 04:01:56 0° 26° (NNE) 3,221 7.8 -25.7°
